TimeEST,TemperatureF,Dew PointF,Humidity,Sea Level PressureIn,VisibilityMPH,Wind Direction,Wind SpeedMPH,Gust SpeedMPH,PrecipitationIn,Events,Conditions,WindDirDegrees,DateUTC
12:53 AM,41.0,23.0,49,29.77,10.0,Variable,6.9,-,0.00,Rain,Rain,0,2012-02-25 05:53:00
1:53 AM,39.9,23.0,51,29.77,10.0,Variable,4.6,-,0.00,Rain,Rain,0,2012-02-25 06:53:00
2:53 AM,39.0,23.0,53,29.78,10.0,Calm,Calm,-,0.00,Rain,Rain,0,2012-02-25 07:53:00
3:53 AM,37.9,24.1,57,29.79,10.0,Variable,4.6,-,0.00,Rain,Rain,0,2012-02-25 08:53:00
4:53 AM,37.9,24.1,57,29.81,10.0,WSW,5.8,-,0.00,Rain,Rain,240,2012-02-25 09:53:00
5:53 AM,37.0,21.0,52,29.83,10.0,West,13.8,27.6,0.00,,Clear,260,2012-02-25 10:53:00
6:53 AM,37.9,17.1,43,29.86,10.0,West,13.8,27.6,N/A,,Clear,270,2012-02-25 11:53:00
7:53 AM,39.0,18.0,43,29.89,10.0,West,16.1,29.9,N/A,,Mostly Cloudy,270,2012-02-25 12:53:00
8:53 AM,37.0,17.1,44,29.94,10.0,NW,16.1,32.2,N/A,,Mostly Cloudy,320,2012-02-25 13:53:00
9:53 AM,39.9,12.0,32,29.94,10.0,West,18.4,36.8,N/A,,Scattered Clouds,280,2012-02-25 14:53:00
10:53 AM,41.0,12.9,32,29.94,10.0,Variable,6.9,24.2,N/A,,Clear,0,2012-02-25 15:53:00
11:53 AM,43.0,12.9,30,29.93,10.0,West,11.5,19.6,N/A,,Partly Cloudy,280,2012-02-25 16:53:00
12:53 PM,45.0,10.9,25,29.94,10.0,West,9.2,20.7,N/A,,Partly Cloudy,280,2012-02-25 17:53:00
1:53 PM,43.0,12.0,28,29.94,10.0,WNW,10.4,21.9,N/A,,Overcast,290,2012-02-25 18:53:00
2:53 PM,44.1,12.0,27,29.96,10.0,West,11.5,23.0,N/A,,Overcast,260,2012-02-25 19:53:00
3:53 PM,42.1,10.9,28,30.02,10.0,WNW,11.5,27.6,N/A,,Overcast,290,2012-02-25 20:53:00
4:53 PM,39.0,10.9,32,30.08,10.0,Variable,6.9,23.0,N/A,,Mostly Cloudy,0,2012-02-25 21:53:00
5:53 PM,36.0,9.0,33,30.15,10.0,WNW,8.1,-,N/A,,Clear,290,2012-02-25 22:53:00
6:53 PM,36.0,9.0,33,30.19,10.0,Variable,4.6,-,N/A,,Scattered Clouds,0,2012-02-25 23:53:00
7:53 PM,34.0,10.0,37,30.21,10.0,Variable,3.5,-,N/A,,Scattered Clouds,0,2012-02-26 00:53:00
8:53 PM,35.1,10.0,35,30.24,10.0,Variable,4.6,-,N/A,,Clear,0,2012-02-26 01:53:00
9:53 PM,34.0,10.9,38,30.27,10.0,Variable,6.9,-,N/A,,Clear,0,2012-02-26 02:53:00
10:53 PM,33.1,12.0,42,30.30,10.0,Calm,Calm,-,N/A,,Partly Cloudy,0,2012-02-26 03:53:00
11:53 PM,33.1,10.9,40,30.31,10.0,Variable,3.5,-,N/A,,Clear,0,2012-02-26 04:53:00